TimeCST,TemperatureF,Dew PointF,Humidity,Sea Level PressureIn,VisibilityMPH,Wind Direction,Wind SpeedMPH,Gust SpeedMPH,PrecipitationIn,Events,Conditions,WindDirDegrees,DateUTC
12:54 AM,30.0,19.9,66,30.17,10.0,SE,8.1,-,N/A,,Clear,130,2012-02-20 06:54:00
1:54 AM,30.0,19.9,66,30.18,10.0,SE,6.9,-,N/A,,Clear,140,2012-02-20 07:54:00
2:54 AM,30.0,21.0,69,30.17,10.0,ESE,10.4,-,N/A,,Clear,120,2012-02-20 08:54:00
3:54 AM,30.0,21.0,69,30.15,10.0,ESE,8.1,-,N/A,,Clear,120,2012-02-20 09:54:00
4:54 AM,30.0,21.0,69,30.15,10.0,ESE,8.1,-,N/A,,Clear,120,2012-02-20 10:54:00
5:54 AM,28.4,21.2,74,30.13,10.0,ESE,9.2,-,N/A,,Clear,120,2012-02-20 11:54:00
6:54 AM,28.9,21.0,72,30.14,10.0,ESE,11.5,-,N/A,,Clear,120,2012-02-20 12:54:00
7:54 AM,30.2,21.2,69,30.13,10.0,SE,12.7,-,N/A,,Clear,130,2012-02-20 13:54:00
8:54 AM,35.1,23.0,61,30.15,10.0,SE,12.7,-,N/A,,Clear,140,2012-02-20 14:54:00
9:54 AM,41.0,25.0,53,30.12,10.0,SSE,16.1,-,N/A,,Clear,150,2012-02-20 15:54:00
10:54 AM,45.0,27.0,49,30.12,10.0,SSE,13.8,23.0,N/A,,Clear,160,2012-02-20 16:54:00
11:54 AM,46.9,27.0,46,30.08,10.0,SE,16.1,23.0,N/A,,Clear,130,2012-02-20 17:54:00
12:54 PM,51.1,28.9,43,30.01,10.0,SE,18.4,25.3,N/A,,Clear,130,2012-02-20 18:54:00
1:54 PM,53.1,27.0,37,29.95,10.0,SSE,19.6,31.1,N/A,,Clear,150,2012-02-20 19:54:00
2:54 PM,53.1,26.1,35,29.91,10.0,SSE,23.0,28.8,N/A,,Clear,150,2012-02-20 20:54:00
3:54 PM,52.0,25.0,35,29.89,10.0,SSE,20.7,25.3,N/A,,Clear,150,2012-02-20 21:54:00
4:54 PM,51.8,24.8,35,29.85,10.0,SSE,16.1,-,N/A,,Scattered Clouds,150,2012-02-20 22:54:00
5:54 PM,51.1,24.1,35,29.82,10.0,SE,18.4,25.3,N/A,,Overcast,140,2012-02-20 23:54:00
6:54 PM,50.0,24.1,36,29.83,10.0,SSE,15.0,-,N/A,,Overcast,160,2012-02-21 00:54:00
7:54 PM,48.9,24.1,38,29.81,10.0,SE,9.2,-,N/A,,Overcast,140,2012-02-21 01:54:00
8:54 PM,48.0,24.1,39,29.78,10.0,SSE,16.1,26.5,N/A,,Overcast,150,2012-02-21 02:54:00
9:54 PM,46.9,27.0,46,29.82,10.0,South,15.0,28.8,0.00,Rain,Light Rain,190,2012-02-21 03:54:00
10:11 PM,42.8,35.6,76,29.81,6.0,South,18.4,41.4,0.01,Rain,Rain,190,2012-02-21 04:11:00
10:40 PM,41.0,35.6,81,29.74,10.0,SSE,9.2,-,0.03,,Overcast,150,2012-02-21 04:40:00
10:54 PM,41.0,36.0,82,29.76,10.0,SSE,10.4,-,0.03,,Scattered Clouds,160,2012-02-21 04:54:00
11:54 PM,39.9,36.0,86,29.70,10.0,SE,5.8,-,N/A,,Mostly Cloudy,140,2012-02-21 05:54:00